Location: Unspecified
(40.7945°N, 0.0000°E)
Time: 21:16:41
(UTC+00:00)

ISS - Visible Passes

Search period start: 30 November 2020 00:00
Search period end: 10 December 2020 00:00
Orbit: 418 x 420 km, 51.6° (Epoch: 01 December)

Date Brightness Start Highest point End Pass type
(mag) Time Alt. Az. Time Alt. Az. Time Alt. Az.
30 Nov -1.4 17:14:29 10° NW 17:16:14 13° N 17:17:59 10° NNE visible
01 Dec -1.6 18:04:13 10° NNW 18:05:55 15° N 18:05:55 15° N visible
02 Dec -1.5 17:16:39 10° NNW 17:18:26 14° N 17:20:13 10° NE visible
02 Dec -0.8 18:53:02 10° NW 18:53:17 11° NW 18:53:17 11° NW visible
03 Dec -2.1 18:05:36 10° NNW 18:07:46 21° N 18:07:46 21° N visible
04 Dec -1.9 17:18:08 10° NNW 17:20:31 18° NNE 17:22:19 13° NE visible
04 Dec -1.1 18:54:27 10° NW 18:55:18 17° NW 18:55:18 17° NW visible
05 Dec -3.3 18:06:55 10° NW 18:09:59 42° NNE 18:09:59 42° NNE visible
06 Dec -2.8 17:19:26 10° NW 17:22:26 29° NNE 17:24:52 14° E visible
06 Dec -1.5 18:56:07 10° WNW 18:57:52 25° W 18:57:52 25° W visible
07 Dec -3.5 18:08:22 10° WNW 18:11:44 69° SW 18:13:00 34° SE visible
08 Dec -3.8 17:20:44 10° NW 17:24:06 69° NE 17:27:27 10° ESE visible
08 Dec -0.7 18:58:48 10° W 19:00:30 13° SW 19:01:34 12° SSW visible
09 Dec -1.3 18:10:20 10° W 18:13:01 23° SW 18:15:44 10° S visible
